Home > Weather > Colchester County > Past weeks

Flag for Canada Past Weather in Colchester County, Nova Scotia, Canada — Yesterday and Last 2 Weeks

Now
64 °F

Scattered clouds.


Feels Like: 64 °F
Forecast: N/A
Wind: 9 mph from Southwest

Location: Halifax International Airport

Current Time: May 25, 2016 at 7:47:25 PM

Latest Report: May 25, 2016 at 7:00 PM


Visibility: 15 mi

Pressure: 29.93 "Hg

Humidity: 64%

Dew Point: 52 °F

Location of Colchester CountyLocation

Past Weather in Colchester County — Graph

°F

Colchester County Temperature Yesterday

Maximum temperature yesterday: 64 °F (at 4:00 PM)
Minimum temperature yesterday: 43 °F (at 4:00 AM)
Average temperature yesterday: 52 °F

High & Low Weather Summary for the Past Weeks

 TemperatureHumidityPressure
High79 °F (May 21, 2:00 PM)100% (May 14, 1:47 AM)30.15 "Hg (May 14, 1:47 AM)
Low34 °F (May 13, 6:00 AM)22% (May 21, 5:00 PM)29.48 "Hg (May 15, 7:00 PM)
Average52 °F73%29.91 "Hg
* Reported May 10 6:00 PM — May 25 6:00 PM, Colchester County, Weather by CustomWeather, © 2016

Note: Actual official high and low records may vary slightly from our data, if they occured in-between our weather recording intervals... More about our weather records

Advertising

Colchester County Weather History for the Previous 24 Hours

Scroll right to see more
 ConditionsComfort  
Time TempWeatherWind HumidityBarometerVisibility
6:00 PM
Wed, May 25
66 °FScattered clouds.13 mph64%29.92 "Hg15 mi
5:00 PM68 °FScattered clouds.15 mph60%29.93 "Hg15 mi
4:00 PM70 °FScattered clouds.15 mph60%29.93 "Hg15 mi
3:00 PM68 °FBroken clouds.12 mph69%29.94 "Hg15 mi
2:00 PM63 °FPartly sunny.9 mph88%29.97 "Hg15 mi
1:48 PM63 °FPartly sunny.12 mph88%29.98 "Hg15 mi
1:00 PM59 °FLow clouds.9 mph100%29.99 "Hg15 mi
12:52 PM59 °FLow clouds.8 mph94%30.00 "Hg15 mi
12:00 PM57 °FLow clouds.9 mph100%30.01 "Hg10 mi
11:45 AM57 °FLow clouds.12 mph100%30.02 "Hg8 mi
11:00 AM57 °FFog.9 mph100%30.01 "Hg1 mi
10:04 AM57 °FSprinkles. Fog.10 mph100%30.00 "Hg1 mi
9:53 AM57 °FFog.10 mph100%30.00 "Hg1 mi
9:00 AM55 °FFog.9 mph100%30.01 "Hg0 mi
8:00 AM52 °FFog.7 mph100%30.02 "Hg0 mi
7:00 AM52 °FFog.8 mph100%30.02 "Hg0 mi
6:00 AM52 °FFog.3 mph100%30.02 "Hg0 mi
5:00 AM52 °FFog.5 mph100%30.01 "Hg0 mi
4:00 AM54 °FFog.5 mph100%30.01 "Hg0 mi
3:00 AM54 °FFog.6 mph100%30.02 "Hg0 mi
2:00 AM54 °FFog.6 mph100%30.03 "Hg0 mi
1:00 AM54 °FFog.7 mph100%30.03 "Hg0 mi
12:00 AM55 °FFog.6 mph100%30.03 "Hg0 mi
11:00 PM
Tue, May 24
55 °FFog.6 mph100%30.04 "Hg0 mi
10:00 PM55 °FFog.6 mph100%30.04 "Hg0 mi
9:00 PM55 °FFog.8 mph100%30.02 "Hg0 mi
8:00 PM59 °FDrizzle. Fog.9 mph94%30.03 "Hg2 mi
7:49 PM59 °FDrizzle. Fog.8 mph94%30.03 "Hg3 mi
7:00 PM61 °FPartly sunny.7 mph94%30.03 "Hg12 mi
Weather by CustomWeather, © 2016

See weather overviewHow to use our weather pages